Terug naar catalogus

STARLINK-33871

ActiefCommunicatieVLEO
NORAD 63994·PAYLOAD·🇺🇸 United States

Gelanceerd May 14, 2025 vanaf Cape Canaveral Space Force Station

Loading…

Volgende Passages (komende 24 uur)

TLE

VersSource: CelesTrak SupGP

Epoch: Sep 14, 2026, 21:08 UTC

1 63994C 25101A   26257.88104167  .00031494  00000+0  11407-2 0  2579
2 63994  43.0014   9.8326 0001460 271.2999 169.0682 15.27562407    15

Volg STARLINK-33871 in realtime met AllMySat

Download on the App Store